This is the latest recevied weather packets stored in our database for station/object N0QWM. If no packets are shown the sender has not sent any weather packets the latest 10 day(s).
| Time | Temp. | Humidity | Pressure | Rain* | Wind** | Luminosity | Snow |
|---|---|---|---|---|---|---|---|
| 1788272756 | 31.11° C | 71% | 1025.5 hPa | 0 mm | - | 500 W/m² | - |
| 1788272455 | 31.11° C | 72% | 1025.7 hPa | 0 mm | - | 485 W/m² | - |
| 1788272150 | 30.56° C | 71% | 1025.5 hPa | 0 mm | - | 471 W/m² | - |
| 1788271845 | 30° C | 74% | 1025.5 hPa | 0 mm | - | 438 W/m² | - |
| 1788271555 | 30° C | 74% | 1025.4 hPa | 0 mm | - | 416 W/m² | - |
| 1788271244 | 29.44° C | 76% | 1025.3 hPa | 0 mm | - | 366 W/m² | - |
| 1788270943 | 29.44° C | 76% | 1025.4 hPa | 0 mm | - | 337 W/m² | - |
| 1788270638 | 28.89° C | 77% | 1025.3 hPa | 0 mm | - | 322 W/m² | - |
| 1788270335 | 27.78° C | 80% | 1025.6 hPa | 0 mm | - | 307 W/m² | - |
| 1788270029 | 27.22° C | 83% | 1025.5 hPa | 0 mm | - | 292 W/m² | - |
| 1788269728 | 26.67° C | 86% | 1025.5 hPa | 0 mm | - | 82 W/m² | - |
| 1788269426 | 26.67° C | 85% | 1025.5 hPa | 0 mm | - | 60 W/m² | - |
| 1788269121 | 26.67° C | 86% | 1025.5 hPa | 0 mm | - | 53 W/m² | - |
| 1788268820 | 26.11° C | 89% | 1025.7 hPa | 0 mm | - | 56 W/m² | - |
| 1788268515 | 25.56° C | 90% | 1025.7 hPa | 0 mm | - | 52 W/m² | - |
| 1788268205 | 25.56° C | 93% | 1025.5 hPa | 0 mm | - | 95 W/m² | - |
| 1788267905 | 25° C | 93% | 1025.5 hPa | 0 mm | - | 55 W/m² | - |
| 1788267602 | 24.44° C | 95% | 1025.3 hPa | 0 mm | - | 61 W/m² | - |
| 1788267296 | 24.44° C | 96% | 1025.4 hPa | 0 mm | - | 43 W/m² | - |
| 1788266991 | 23.89° C | 97% | 1025.6 hPa | 0 mm | - | 40 W/m² | - |
| 1788266686 | 23.89° C | 98% | 1025.4 hPa | 0 mm | - | 39 W/m² | - |
| 1788266381 | 23.33° C | 99% | 1025.2 hPa | 0 mm | - | 36 W/m² | - |
| 1788266076 | 23.33° C | 99% | 1025.2 hPa | 0 mm | - | 34 W/m² | - |
| 1788265774 | 22.78° C | 99% | 1024.9 hPa | 0 mm | - | 32 W/m² | - |
| 1788265474 | 22.78° C | 99% | 1025.1 hPa | 0 mm | - | 29 W/m² | - |
* Rain latest hour (hover to see other rain measurements)
** Current wind speed in m/s (hover to see current wind gust speed)